Weather History for Lafayette, LA

Change the Weather History Date:

Thursday, September 13, 2012

  Actual Average Record
Temperature  
Mean Temperature 81 °F 80 °F  
Max Temperature 90 °F 89 °F 99 °F (1912)
Min Temperature 71 °F 71 °F 48 °F (1940)
Degree Days  
Heating Degree Days 0 0  
Month to date heating degree days 0 0  
Since 1 July heating degree days 0 0  
Cooling Degree Days 16 15  
Month to date cooling degree days 214 213  
Year to date cooling degree days 2661 2474  
Growing Degree Days 30 (Base 50)    
Moisture  
Dew Point 70 °F    
Average Humidity 73    
Maximum Humidity 93    
Minimum Humidity 52    
Precipitation  
Precipitation 0.15 in 0.17 in 2.48 in (2007)
Month to date precipitation 2.26 2.17  
Year to date precipitation 53.98 42.79  
Sea Level Pressure  
Sea Level Pressure 30.10 in    
Wind  
Wind Speed 2 mph (East)    
Max Wind Speed 14 mph    
Max Gust Speed 24 mph    
Visibility 9 miles    
Events Rain    
T = Trace of Precipitation, MM = Missing Value Source: NWS Daily Summary

Daily Weather History Graph

Daily Weather History Graph

Search for Another Location

Airport:

Trip Planner

Search our weather history database for the weather conditions in past years. The results will help you decide how hot, cold, wet, or windy it might be!

Date:

Astronomy

Sep. 13, 2012 Rise Set
Actual Time 6:51 AM CDT 7:15 PM CDT
Civil Twilight 6:27 AM CDT 7:39 PM CDT
Nautical Twilight 5:59 AM CDT 8:07 PM CDT
Astronomical Twilight 5:30 AM CDT 8:35 PM CDT
Moon 4:19 AM CDT (9/13) 5:32 PM CDT (9/13)
Length of Visible Light 13h 11m
Length of Day
12h 23m
Waning Crescent, 7% of the Moon is Illuminated
Sep 13
Waning Crescent
Sep 15
New
Sep 22
First Quarter
Sep 29
Full
Oct 8
Last Quarter

Hourly Weather History & Observations

Time (CDT) Temp. Heat Index Dew Point Humidity Pressure Visibility Wind Dir Wind Speed Gust Speed Precip Events Conditions
12:53 AM 71.1 °F - 69.1 °F 93% 30.10 in 10.0 mi Calm Calm - N/A   Clear
1:53 AM 71.1 °F - 69.1 °F 93% 30.10 in 10.0 mi Calm Calm - N/A   Clear
2:53 AM 71.1 °F - 69.1 °F 93% 30.09 in 10.0 mi Calm Calm - N/A   Clear
3:53 AM 71.1 °F - 69.1 °F 93% 30.09 in 9.0 mi ENE 3.5 mph - N/A   Clear
4:53 AM 72.0 °F - 70.0 °F 93% 30.08 in 10.0 mi Calm Calm - 0.01 in   Clear
5:53 AM 72.0 °F - 70.0 °F 93% 30.10 in 7.0 mi Calm Calm - N/A   Clear
6:53 AM 72.0 °F - 70.0 °F 93% 30.11 in 5.0 mi Calm Calm - N/A   Clear
7:53 AM 73.0 °F - 71.1 °F 93% 30.12 in 5.0 mi Calm Calm - N/A   Clear
8:53 AM 77.0 °F - 72.0 °F 84% 30.12 in 8.0 mi East 3.5 mph - N/A   Clear
9:53 AM 81.0 °F 85.8 °F 73.0 °F 77% 30.13 in 10.0 mi Variable 3.5 mph - N/A   Partly Cloudy
10:53 AM 82.9 °F 88.0 °F 72.0 °F 69% 30.14 in 10.0 mi Variable 3.5 mph - N/A   Mostly Cloudy
11:53 AM 84.0 °F 89.0 °F 71.1 °F 65% 30.13 in 10.0 mi ESE 4.6 mph - N/A   Mostly Cloudy
12:00 PM 84.2 °F 89.6 °F 71.6 °F 66% 30.13 in 10.0 mi ESE 3.5 mph - N/A   Scattered Clouds
12:53 PM 87.1 °F 92.0 °F 70.0 °F 57% 30.13 in 10.0 mi Calm Calm - N/A   Scattered Clouds
1:53 PM 88.0 °F 92.9 °F 70.0 °F 55% 30.10 in 10.0 mi Calm Calm - N/A   Mostly Cloudy
2:53 PM 89.1 °F 93.7 °F 69.1 °F 52% 30.06 in 10.0 mi NE 4.6 mph - N/A   Partly Cloudy
3:53 PM 82.9 °F 85.8 °F 68.0 °F 60% 30.06 in 10.0 mi SW 5.8 mph - N/A   Scattered Clouds
4:53 PM 75.0 °F - 70.0 °F 84% 30.08 in 2.5 mi Variable 4.6 mph 16.1 mph 0.09 in Rain Heavy Rain
5:11 PM 73.4 °F - 69.8 °F 88% 30.08 in 7.0 mi SSE 5.8 mph - 0.05 in Rain Light Rain
5:53 PM 75.0 °F - 69.1 °F 82% 30.07 in 10.0 mi Calm Calm - 0.05 in   Scattered Clouds
6:53 PM 75.2 °F - 69.8 °F 83% 30.08 in 10.0 mi Calm Calm - N/A   Scattered Clouds
7:53 PM 73.9 °F - 70.0 °F 87% 30.10 in 10.0 mi Calm Calm - N/A   Clear
8:53 PM 73.0 °F - 69.1 °F 87% 30.11 in 10.0 mi Calm Calm - N/A   Clear
9:53 PM 73.0 °F - 70.0 °F 90% 30.13 in 10.0 mi Calm Calm - N/A   Clear
10:53 PM 72.0 °F - 69.1 °F 91% 30.14 in 10.0 mi Calm Calm - N/A   Clear
11:53 PM 72.0 °F - 69.1 °F 91% 30.14 in 10.0 mi NE 3.5 mph - N/A   Clear